RH
75 71 70 71 70 71 69 55 54 58 66 66 67 57 55 50 53 58 56 48 48 50 42 38 38 40 40 45 49 51 44 39 43 51 54 54 54 62 66 70 68 69 65
73 74 74 70 62 61 60 57 53 52 53 55 50 47 49 52 57 60 56 46 48 51 50 52 54 57 56 47 40 47 47 38 47 55 57 53 47 59 61 64 63 63 60
71 74 70 59 56 59 74 57 52 50 47 45 47 48 52 59 59 62 59 55 58 62 59 60 58 55 47 34 33 42 42 40 46 54 66 68 57 50 56 56 56 58 61
76 73 61 55 57 62 63 63 61 60 61 55 53 53 58 59 63 59 63 69 65 63 58 56 49 44 40 40 39 41 43 51 53 52 61 70 71 53 47 53 55 57 56
74 65 55 55 59 63 64 60 55 58 67 62 59 58 63 70 68 66 68 70 68 66 73 68 53 48 45 50 48 43 45 45 51 53 55 58 70 74 67 63 53 52 51
64 64 53 62 66 62 57 55 56 53 65 62 62 64 68 69 70 73 74 75 72 71 70 62 53 46 45 44 42 42 43 47 60 54 46 41 48 41 38 40 42 44 46
61 62 58 55 55 54 60 61 60 56 61 63 63 68 73 78 78 72 67 67 71 68 68 62 52 45 40 37 37 40 42 46 57 52 47 45 41 32 37 36 38 41 44
60 62 57 52 51 57 60 59 58 57 64 64 63 71 78 75 69 64 61 62 65 67 67 63 54 45 41 37 35 37 44 49 51 48 50 46 33 35 34 31 32 38 34
60 62 57 60 57 55 58 54 59 56 62 61 73 70 74 70 66 59 59 61 60 59 63 58 51 47 42 39 38 38 41 45 53 52 55 43 35 34 30 28 29 27 28
57 62 60 66 67 62 53 50 56 59 60 62 64 66 64 70 68 56 54 55 60 66 67 60 49 43 42 39 38 37 40 45 51 47 43 31 36 28 26 27 28 29 30
52 54 61 69 69 59 52 47 56 57 60 63 65 68 76 77 74 67 55 55 61 67 67 60 51 45 40 37 35 37 42 46 50 47 33 33 29 26 28 29 32 34 36
49 49 54 68 68 62 50 54 59 62 67 67 66 71 75 78 70 55 49 55 59 66 71 62 50 48 48 49 44 45 43 41 40 37 33 29 29 29 32 34 36 38 39
46 42 43 66 65 54 52 55 56 62 63 59 66 70 69 69 63 61 58 56 54 61 68 58 51 48 47 52 54 49 45 41 39 40 32 29 29 34 36 37 38 39 39
45 39 42 56 61 55 55 57 56 57 61 65 66 65 64 63 62 64 57 50 54 56 54 52 47 42 45 48 49 48 44 41 40 40 31 31 34 36 37 38 40 41 44
43 38 42 50 51 52 61 59 60 59 62 60 62 59 58 55 58 58 56 56 60 57 53 49 44 43 46 48 47 43 46 43 42 39 37 33 35 36 39 41 44 46 48
48 42 41 46 49 50 57 59 61 60 61 62 64 59 61 56 53 52 55 53 49 49 48 45 40 45 49 47 45 48 47 42 36 42 43 38 37 40 45 47 47 48 48
51 47 43 44 50 50 52 59 63 65 64 64 63 57 54 56 48 52 53 52 50 44 43 42 43 48 52 54 50 47 46 43 41 42 49 50 45 48 47 48 47 43 39
51 46 48 46 50 49 53 56 62 62 68 61 62 63 59 57 52 53 54 52 48 46 46 45 44 53 57 58 53 53 46 43 44 45 50 52 54 54 49 49 40 37 35
49 44 55 52 53 55 55 53 57 58 61 63 65 64 58 58 59 55 55 53 48 46 47 47 42 51 57 59 55 51 48 47 48 51 49 54 54 53 54 41 38 39 40
47 45 48 60 57 56 62 56 59 59 60 56 56 58 56 57 56 57 57 56 55 50 46 45 38 40 51 53 55 51 50 47 49 52 52 57 55 55 50 42 46 47 42
46 47 46 50 65 61 61 71 67 64 60 58 56 52 54 56 49 49 54 52 52 51 48 42 41 40 49 46 55 51 47 47 52 56 54 57 56 57 47 50 54 56 50
48 44 43 45 45 61 63 67 77 72 69 68 66 61 56 50 47 48 50 55 49 50 51 44 36 48 44 42 52 54 53 47 52 55 54 55 56 55 49 53 55 56 53
50 46 41 42 42 44 59 68 73 74 76 74 70 68 62 55 56 46 47 54 51 49 50 43 38 39 48 40 44 56 55 53 51 52 52 56 55 58 52 53 56 57 56
50 50 47 40 42 38 43 64 78 75 75 74 74 69 65 54 53 48 44 46 47 50 47 47 43 40 42 48 46 51 48 48 56 55 53 53 54 59 54 59 60 60 56
51 53 50 45 41 41 35 51 66 74 77 79 74 66 64 56 51 51 44 44 45 49 48 48 45 41 38 44 46 51 52 51 48 53 56 55 54 56 58 60 61 62 60
56 56 55 52 43 38 38 39 51 69 73 80 77 75 65 62 55 51 49 37 44 51 49 48 45 44 42 42 42 47 58 60 59 56 55 55 56 54 57 60 61 60 61